Time,TemperatureF,DewpointF,PressureIn,WindDirection,WindDirectionDegrees,WindSpeedMPH,WindSpeedGustMPH,Humidity,HourlyPrecipIn,Conditions,Clouds,dailyrainin,SoftwareType,DateUTC
2013-09-22 00:00:00,63.3,62.4,29.76,WNW,298,0.0,6.0,97,0.00,,-RA,0.00,VWS V14.01,2013-09-22 04:00:00,
2013-09-22 00:08:00,63.4,62.5,29.76,West,277,3.0,4.0,97,0.00,,-RA,0.00,VWS V14.01,2013-09-22 04:08:00,
2013-09-22 00:10:00,63.3,62.4,29.76,WNW,287,3.0,3.0,97,0.00,,-RA,0.00,VWS V14.01,2013-09-22 04:10:00,
2013-09-22 00:15:00,63.2,62.6,29.76,West,277,2.0,5.0,98,0.00,,-RA,0.00,VWS V14.01,2013-09-22 04:15:00,
2013-09-22 00:20:00,63.3,62.4,29.77,West,267,0.0,4.0,97,0.00,,-RA,0.00,VWS V14.01,2013-09-22 04:20:00,
2013-09-22 00:25:00,63.2,62.3,29.76,West,275,3.0,7.0,97,0.00,,-RA,0.00,VWS V14.01,2013-09-22 04:25:00,
2013-09-22 00:30:00,63.2,62.3,29.76,West,267,3.0,5.0,97,0.00,,-RA,0.00,VWS V14.01,2013-09-22 04:30:00,
2013-09-22 00:35:00,63.1,62.2,29.76,West,274,1.0,8.0,97,0.00,,-RA,0.00,VWS V14.01,2013-09-22 04:35:00,
2013-09-22 00:40:00,63.0,62.1,29.76,WNW,301,2.0,6.0,97,0.00,,-RA,0.00,VWS V14.01,2013-09-22 04:40:00,
2013-09-22 00:50:00,63.1,62.2,29.76,WNW,297,2.0,5.0,97,0.00,,-RA,0.00,VWS V14.01,2013-09-22 04:50:00,
2013-09-22 00:55:00,62.9,62.0,29.76,WNW,297,3.0,5.0,97,0.00,,-RA,0.00,VWS V14.01,2013-09-22 04:55:00,
2013-09-22 01:00:00,62.9,62.0,29.76,WNW,297,0.0,8.0,97,0.00,,-RA,0.00,VWS V14.01,2013-09-22 05:00:00,
2013-09-22 01:08:00,62.9,61.7,29.76,NW,324,8.0,8.0,96,0.00,,-RA,0.00,VWS V14.01,2013-09-22 05:08:00,
2013-09-22 01:15:00,62.8,61.6,29.76,WNW,302,1.0,9.0,96,0.00,,-RA,0.00,VWS V14.01,2013-09-22 05:15:00,
2013-09-22 01:20:00,62.8,61.6,29.76,WNW,296,2.0,5.0,96,0.00,,-RA,0.00,VWS V14.01,2013-09-22 05:20:00,
2013-09-22 01:25:00,62.7,61.5,29.76,WNW,297,3.0,7.0,96,0.00,,-RA,0.00,VWS V14.01,2013-09-22 05:25:00,
2013-09-22 01:30:00,62.7,61.5,29.76,WNW,297,0.0,4.0,96,0.00,,-RA,0.00,VWS V14.01,2013-09-22 05:30:00,
2013-09-22 01:40:00,62.7,61.5,29.76,NW,312,3.0,7.0,96,0.00,,-RA,0.00,VWS V14.01,2013-09-22 05:40:00,
2013-09-22 01:45:00,62.6,61.4,29.76,NW,310,2.0,6.0,96,0.00,,-RA,0.00,VWS V14.01,2013-09-22 05:45:00,
2013-09-22 01:50:00,62.5,61.3,29.76,WNW,299,2.0,5.0,96,0.00,,-RA,0.00,VWS V14.01,2013-09-22 05:50:00,
2013-09-22 01:55:00,62.5,61.3,29.76,WNW,300,0.0,4.0,96,0.00,,-RA,0.00,VWS V14.01,2013-09-22 05:55:00,
2013-09-22 02:00:00,62.5,61.3,29.76,WNW,300,0.0,3.0,96,0.00,,BKN150,0.00,VWS V14.01,2013-09-22 06:00:00,
2013-09-22 02:08:00,62.5,61.3,29.77,West,259,1.0,6.0,96,0.00,,BKN150,0.00,VWS V14.01,2013-09-22 06:08:00,
2013-09-22 02:15:00,62.5,61.3,29.77,West,269,3.0,5.0,96,0.00,,BKN150,0.00,VWS V14.01,2013-09-22 06:15:00,
2013-09-22 02:20:00,62.5,61.3,29.76,West,270,0.0,3.0,96,0.00,,BKN150,0.00,VWS V14.01,2013-09-22 06:20:00,
2013-09-22 02:30:00,62.3,61.4,29.77,West,275,2.0,5.0,97,0.00,,BKN150,0.00,VWS V14.01,2013-09-22 06:30:00,
2013-09-22 02:35:00,62.3,61.1,29.77,West,275,2.0,3.0,96,0.00,,BKN150,0.00,VWS V14.01,2013-09-22 06:35:00,
2013-09-22 02:40:00,62.3,61.1,29.77,West,273,3.0,4.0,96,0.00,,BKN150,0.00,VWS V14.01,2013-09-22 06:40:00,
2013-09-22 02:45:00,62.3,61.1,29.77,West,278,1.0,4.0,96,0.00,,BKN150,0.00,VWS V14.01,2013-09-22 06:45:00,
2013-09-22 02:55:00,62.2,61.0,29.77,WNW,288,4.0,7.0,96,0.00,,BKN150,0.00,VWS V14.01,2013-09-22 06:55:00,
2013-09-22 03:00:00,62.1,60.9,29.77,West,277,0.0,4.0,96,0.00,,OVC080,0.00,VWS V14.01,2013-09-22 07:00:00,
2013-09-22 03:08:00,62.1,60.9,29.77,WNW,303,0.0,5.0,96,0.00,,OVC080,0.00,VWS V14.01,2013-09-22 07:08:00,
2013-09-22 03:15:00,62.0,61.4,29.77,WNW,302,0.0,6.0,98,0.00,,OVC080,0.00,VWS V14.01,2013-09-22 07:15:00,
2013-09-22 03:20:00,62.0,60.8,29.77,WNW,299,0.0,7.0,96,0.00,,OVC080,0.00,VWS V14.01,2013-09-22 07:20:00,
2013-09-22 03:27:00,61.9,60.7,29.77,WNW,297,3.0,4.0,96,0.00,,OVC080,0.00,VWS V14.01,2013-09-22 07:27:00,
2013-09-22 03:35:00,61.9,60.7,29.78,NW,305,1.0,5.0,96,0.00,,OVC080,0.00,VWS V14.01,2013-09-22 07:35:00,
2013-09-22 03:40:00,61.8,60.6,29.78,WNW,302,0.0,4.0,96,0.00,,OVC080,0.00,VWS V14.01,2013-09-22 07:40:00,
2013-09-22 03:45:00,61.7,60.5,29.78,WNW,298,5.0,7.0,96,0.00,,OVC080,0.00,VWS V14.01,2013-09-22 07:45:00,
2013-09-22 03:55:00,61.6,60.4,29.78,NW,308,3.0,6.0,96,0.00,,OVC080,0.00,VWS V14.01,2013-09-22 07:55:00,
2013-09-22 04:00:00,61.5,60.3,29.78,WNW,302,4.0,4.0,96,0.00,,BKN080,0.00,VWS V14.01,2013-09-22 08:00:00,
2013-09-22 04:08:00,61.4,60.2,29.77,WNW,301,3.0,6.0,96,0.00,,BKN080,0.00,VWS V14.01,2013-09-22 08:08:00,
2013-09-22 04:15:00,61.2,59.7,29.78,NW,304,3.0,4.0,95,0.00,,BKN080,0.00,VWS V14.01,2013-09-22 08:15:00,
2013-09-22 04:20:00,61.1,59.6,29.78,WNW,302,0.0,4.0,95,0.00,,BKN080,0.00,VWS V14.01,2013-09-22 08:20:00,
2013-09-22 04:25:00,61.1,59.6,29.78,WNW,292,2.0,6.0,95,0.00,,BKN080,0.00,VWS V14.01,2013-09-22 08:25:00,
2013-09-22 04:30:00,61.0,59.8,29.78,NW,304,2.0,5.0,96,0.00,,BKN080,0.00,VWS V14.01,2013-09-22 08:30:00,
2013-09-22 04:35:00,61.0,59.5,29.78,WNW,287,3.0,7.0,95,0.00,,BKN080,0.00,VWS V14.01,2013-09-22 08:35:00,
2013-09-22 04:40:00,61.0,59.5,29.78,West,280,4.0,5.0,95,0.00,,BKN080,0.00,VWS V14.01,2013-09-22 08:40:00,
2013-09-22 04:50:00,60.8,59.3,29.79,West,268,5.0,7.0,95,0.00,,BKN080,0.00,VWS V14.01,2013-09-22 08:50:00,
2013-09-22 04:55:00,60.8,59.3,29.78,WSW,258,3.0,5.0,95,0.00,,BKN080,0.00,VWS V14.01,2013-09-22 08:55:00,
2013-09-22 05:00:00,60.8,59.3,29.79,WNW,287,3.0,8.0,95,0.00,,BKN080,0.00,VWS V14.01,2013-09-22 09:00:00,
2013-09-22 05:08:00,60.7,59.2,29.79,West,277,4.0,6.0,95,0.00,,BKN080,0.00,VWS V14.01,2013-09-22 09:08:00,
2013-09-22 05:15:00,60.6,59.1,29.79,NW,311,5.0,6.0,95,0.00,,BKN080,0.00,VWS V14.01,2013-09-22 09:15:00,
2013-09-22 05:20:00,60.6,59.1,29.79,West,279,2.0,5.0,95,0.00,,BKN080,0.00,VWS V14.01,2013-09-22 09:20:00,
2013-09-22 05:25:00,60.6,58.8,29.80,West,262,2.0,8.0,94,0.00,,BKN080,0.00,VWS V14.01,2013-09-22 09:25:00,
2013-09-22 05:30:00,60.6,58.8,29.80,WNW,286,5.0,7.0,94,0.00,,BKN080,0.00,VWS V14.01,2013-09-22 09:30:00,
2013-09-22 05:40:00,60.5,58.7,29.80,West,279,2.0,7.0,94,0.00,,BKN080,0.00,VWS V14.01,2013-09-22 09:40:00,
2013-09-22 05:45:00,60.3,58.5,29.80,West,270,2.0,8.0,94,0.00,,BKN080,0.00,VWS V14.01,2013-09-22 09:45:00,
2013-09-22 05:55:00,60.3,58.5,29.80,NW,310,4.0,7.0,94,0.00,,BKN080,0.00,VWS V14.01,2013-09-22 09:55:00,
2013-09-22 06:00:00,60.1,58.3,29.80,WNW,296,0.0,6.0,94,0.00,,FEW080,0.00,VWS V14.01,2013-09-22 10:00:00,
2013-09-22 06:08:00,60.1,58.3,29.80,WNW,300,0.0,6.0,94,0.00,,FEW080,0.00,VWS V14.01,2013-09-22 10:08:00,
2013-09-22 06:15:00,60.0,58.5,29.81,NW,306,1.0,4.0,95,0.00,,FEW080,0.00,VWS V14.01,2013-09-22 10:15:00,
2013-09-22 06:20:00,59.8,58.3,29.81,NW,305,4.0,4.0,95,0.00,,FEW080,0.00,VWS V14.01,2013-09-22 10:20:00,
2013-09-22 06:25:00,59.8,58.3,29.81,WNW,301,0.0,6.0,95,0.00,,FEW080,0.00,VWS V14.01,2013-09-22 10:25:00,
2013-09-22 06:35:00,59.7,58.2,29.82,NW,308,5.0,5.0,95,0.00,,FEW080,0.00,VWS V14.01,2013-09-22 10:35:00,
2013-09-22 06:40:00,59.6,58.1,29.82,NW,310,3.0,5.0,95,0.00,,FEW080,0.00,VWS V14.01,2013-09-22 10:40:00,
2013-09-22 06:45:00,59.6,58.1,29.82,NW,309,3.0,4.0,95,0.00,,FEW080,0.00,VWS V14.01,2013-09-22 10:45:00,
2013-09-22 06:50:00,59.6,58.1,29.82,NW,308,3.0,5.0,95,0.00,,FEW080,0.00,VWS V14.01,2013-09-22 10:50:00,
2013-09-22 07:08:00,59.4,58.2,29.83,NW,308,0.0,2.0,96,0.00,,CLR,0.00,VWS V14.01,2013-09-22 11:08:00,
2013-09-22 07:15:00,59.3,57.8,29.83,NW,308,3.0,3.0,95,0.00,,CLR,0.00,VWS V14.01,2013-09-22 11:15:00,
2013-09-22 07:20:00,59.3,57.8,29.83,NW,307,0.0,4.0,95,0.00,,CLR,0.00,VWS V14.01,2013-09-22 11:20:00,
2013-09-22 07:25:00,59.4,57.9,29.83,NW,307,0.0,5.0,95,0.00,,CLR,0.00,VWS V14.01,2013-09-22 11:25:00,
2013-09-22 07:35:00,59.4,57.9,29.84,NW,308,1.0,4.0,95,0.00,,CLR,0.00,VWS V14.01,2013-09-22 11:35:00,
2013-09-22 07:40:00,59.5,58.0,29.84,WNW,293,1.0,6.0,95,0.00,,CLR,0.00,VWS V14.01,2013-09-22 11:40:00,
2013-09-22 07:45:00,59.6,58.1,29.84,WNW,295,1.0,4.0,95,0.00,,CLR,0.00,VWS V14.01,2013-09-22 11:45:00,
2013-09-22 07:55:00,59.8,58.3,29.85,WNW,296,3.0,5.0,95,0.00,,CLR,0.00,VWS V14.01,2013-09-22 11:55:00,
2013-09-22 08:00:00,60.1,58.3,29.85,WNW,296,2.0,4.0,94,0.00,,FEW080,0.00,VWS V14.01,2013-09-22 12:00:00,
2013-09-22 08:08:00,60.2,58.4,29.84,WNW,298,2.0,7.0,94,0.00,,FEW080,0.00,VWS V14.01,2013-09-22 12:08:00,
2013-09-22 08:15:00,60.6,58.1,29.84,NW,316,8.0,11.0,92,0.00,,FEW080,0.00,VWS V14.01,2013-09-22 12:15:00,
2013-09-22 08:20:00,60.8,58.0,29.84,NW,312,8.0,13.0,90,0.00,,FEW080,0.00,VWS V14.01,2013-09-22 12:20:00,
2013-09-22 08:27:00,61.0,58.2,29.85,WNW,287,2.0,9.0,90,0.00,,FEW080,0.00,VWS V14.01,2013-09-22 12:27:00,
2013-09-22 08:35:00,61.4,57.9,29.85,WNW,298,5.0,7.0,88,0.00,,FEW080,0.00,VWS V14.01,2013-09-22 12:35:00,
2013-09-22 08:40:00,61.4,57.9,29.85,West,264,3.0,6.0,88,0.00,,FEW080,0.00,VWS V14.01,2013-09-22 12:40:00,
2013-09-22 08:45:00,61.5,58.4,29.86,NW,311,4.0,8.0,89,0.00,,FEW080,0.00,VWS V14.01,2013-09-22 12:45:00,
2013-09-22 08:50:00,61.7,57.9,29.86,West,273,4.0,8.0,87,0.00,,FEW080,0.00,VWS V14.01,2013-09-22 12:50:00,
2013-09-22 08:55:00,61.9,57.7,29.86,WNW,303,2.0,7.0,86,0.00,,FEW080,0.00,VWS V14.01,2013-09-22 12:55:00,
2013-09-22 09:00:00,62.1,57.9,29.86,WNW,289,4.0,10.0,86,0.00,,FEW080,0.00,VWS V14.01,2013-09-22 13:00:00,
2013-09-22 09:08:00,62.1,57.6,29.87,NW,322,2.0,4.0,85,0.00,,FEW080,0.00,VWS V14.01,2013-09-22 13:08:00,
2013-09-22 09:15:00,62.7,58.2,29.87,NW,306,2.0,7.0,85,0.00,,FEW080,0.00,VWS V14.01,2013-09-22 13:15:00,
2013-09-22 09:20:00,62.7,57.1,29.87,NNE,27,2.0,8.0,82,0.00,,FEW080,0.00,VWS V14.01,2013-09-22 13:20:00,
2013-09-22 09:25:00,63.1,57.9,29.87,NW,311,7.0,7.0,83,0.00,,FEW080,0.00,VWS V14.01,2013-09-22 13:25:00,
2013-09-22 09:30:00,63.3,57.7,29.87,NW,310,8.0,9.0,82,0.00,,FEW080,0.00,VWS V14.01,2013-09-22 13:30:00,
2013-09-22 09:35:00,63.1,57.5,29.87,NNE,27,2.0,9.0,82,0.00,,FEW080,0.00,VWS V14.01,2013-09-22 13:35:00,
2013-09-22 09:40:00,63.5,57.5,29.87,NW,324,5.0,8.0,81,0.00,,FEW080,0.00,VWS V14.01,2013-09-22 13:40:00,
2013-09-22 09:45:00,63.6,57.3,29.87,NNW,330,3.0,10.0,80,0.00,,FEW080,0.00,VWS V14.01,2013-09-22 13:45:00,
2013-09-22 09:50:00,63.7,57.4,29.87,North,360,1.0,7.0,80,0.00,,FEW080,0.00,VWS V14.01,2013-09-22 13:50:00,
2013-09-22 09:55:00,63.9,56.1,29.88,North,349,4.0,10.0,76,0.00,,FEW080,0.00,VWS V14.01,2013-09-22 13:55:00,
2013-09-22 10:00:00,64.1,56.2,29.87,NNE,23,2.0,11.0,76,0.00,,FEW085,0.00,VWS V14.01,2013-09-22 14:00:00,
2013-09-22 10:08:00,64.1,56.2,29.88,NW,326,5.0,9.0,76,0.00,,FEW085,0.00,VWS V14.01,2013-09-22 14:08:00,
2013-09-22 10:15:00,64.4,56.5,29.88,North,4,5.0,6.0,76,0.00,,FEW085,0.00,VWS V14.01,2013-09-22 14:15:00,
2013-09-22 10:20:00,64.6,56.7,29.88,WNW,300,1.0,7.0,76,0.00,,FEW085,0.00,VWS V14.01,2013-09-22 14:20:00,
2013-09-22 10:25:00,65.0,56.7,29.88,NE,38,2.0,5.0,75,0.00,,FEW085,0.00,VWS V14.01,2013-09-22 14:25:00,
2013-09-22 10:30:00,65.3,56.6,29.88,WNW,299,0.0,12.0,73,0.00,,FEW085,0.00,VWS V14.01,2013-09-22 14:30:00,
2013-09-22 10:35:00,65.7,56.6,29.88,NNE,21,1.0,6.0,72,0.00,,FEW085,0.00,VWS V14.01,2013-09-22 14:35:00,
2013-09-22 10:40:00,65.9,56.0,29.88,NNE,25,3.0,10.0,70,0.00,,FEW085,0.00,VWS V14.01,2013-09-22 14:40:00,
2013-09-22 10:50:00,66.1,56.2,29.87,NE,43,4.0,10.0,70,0.00,,FEW085,0.00,VWS V14.01,2013-09-22 14:50:00,
2013-09-22 10:55:00,66.2,55.0,29.87,NNE,12,5.0,9.0,67,0.00,,FEW085,0.00,VWS V14.01,2013-09-22 14:55:00,
2013-09-22 11:00:00,66.4,55.6,29.87,NE,48,3.0,8.0,68,0.00,,SCT080,0.00,VWS V14.01,2013-09-22 15:00:00,
2013-09-22 11:08:00,66.7,56.3,29.87,NNE,33,3.0,8.0,69,0.00,,SCT080,0.00,VWS V14.01,2013-09-22 15:08:00,
2013-09-22 11:15:00,67.0,55.3,29.87,NE,35,7.0,11.0,66,0.00,,SCT080,0.00,VWS V14.01,2013-09-22 15:15:00,
2013-09-22 11:20:00,67.4,55.7,29.87,NE,42,7.0,8.0,66,0.00,,SCT080,0.00,VWS V14.01,2013-09-22 15:20:00,
2013-09-22 11:25:00,67.5,57.1,29.87,NE,51,5.0,8.0,69,0.00,,SCT080,0.00,VWS V14.01,2013-09-22 15:25:00,
2013-09-22 11:30:00,67.7,55.5,29.87,NE,39,3.0,6.0,65,0.00,,SCT080,0.00,VWS V14.01,2013-09-22 15:30:00,
2013-09-22 11:40:00,68.2,54.2,29.87,North,353,3.0,11.0,61,0.00,,SCT080,0.00,VWS V14.01,2013-09-22 15:40:00,
2013-09-22 11:45:00,68.4,56.2,29.87,NNE,33,4.0,8.0,65,0.00,,SCT080,0.00,VWS V14.01,2013-09-22 15:45:00,
2013-09-22 11:55:00,69.2,55.1,29.86,NE,46,4.0,7.0,61,0.00,,SCT080,0.00,VWS V14.01,2013-09-22 15:55:00,
2013-09-22 12:00:00,69.1,55.0,29.86,ENE,62,2.0,10.0,61,0.00,,SCT080,0.00,VWS V14.01,2013-09-22 16:00:00,
2013-09-22 12:08:00,69.5,53.9,29.86,NNE,31,14.0,14.0,58,0.00,,SCT080,0.00,VWS V14.01,2013-09-22 16:08:00,
2013-09-22 12:15:00,69.7,53.1,29.86,NNE,33,4.0,8.0,55,0.00,,SCT080,0.00,VWS V14.01,2013-09-22 16:15:00,
2013-09-22 12:20:00,70.6,53.9,29.86,WNW,288,8.0,9.0,55,0.00,,SCT080,0.00,VWS V14.01,2013-09-22 16:20:00,
2013-09-22 12:27:00,70.0,53.3,29.86,NW,326,1.0,11.0,55,0.00,,SCT080,0.00,VWS V14.01,2013-09-22 16:27:00,
2013-09-22 12:35:00,70.4,53.2,29.86,NW,318,1.0,9.0,54,0.00,,SCT080,0.00,VWS V14.01,2013-09-22 16:35:00,
2013-09-22 12:45:00,69.0,51.9,29.86,NW,325,4.0,12.0,54,0.00,,SCT080,0.00,VWS V14.01,2013-09-22 16:45:00,
2013-09-22 12:55:00,69.9,50.5,29.86,WNW,292,0.0,9.0,50,0.00,,SCT080,0.00,VWS V14.01,2013-09-22 16:55:00,
2013-09-22 13:00:00,70.5,50.5,29.86,NW,315,6.0,7.0,49,0.00,,SCT080,0.00,VWS V14.01,2013-09-22 17:00:00,
2013-09-22 13:08:00,70.3,50.3,29.86,West,270,3.0,8.0,49,0.00,,SCT080,0.00,VWS V14.01,2013-09-22 17:08:00,
2013-09-22 13:15:00,70.4,52.1,29.86,North,360,2.0,10.0,52,0.00,,SCT080,0.00,VWS V14.01,2013-09-22 17:15:00,
2013-09-22 13:20:00,70.2,51.4,29.86,SW,234,1.0,11.0,51,0.00,,SCT080,0.00,VWS V14.01,2013-09-22 17:20:00,
2013-09-22 13:25:00,70.0,51.7,29.86,NW,311,2.0,11.0,52,0.00,,SCT080,0.00,VWS V14.01,2013-09-22 17:25:00,
2013-09-22 13:30:00,70.8,53.6,29.85,North,354,3.0,11.0,54,0.00,,SCT080,0.00,VWS V14.01,2013-09-22 17:30:00,
2013-09-22 13:35:00,70.5,52.2,29.85,WNW,290,5.0,13.0,52,0.00,,SCT080,0.00,VWS V14.01,2013-09-22 17:35:00,
2013-09-22 13:40:00,69.8,50.4,29.85,WSW,252,5.0,12.0,50,0.00,,SCT080,0.00,VWS V14.01,2013-09-22 17:40:00,
2013-09-22 13:45:00,70.0,51.2,29.85,NW,311,3.0,10.0,51,0.00,,SCT080,0.00,VWS V14.01,2013-09-22 17:45:00,
2013-09-22 13:55:00,70.9,53.1,29.85,NW,305,1.0,13.0,53,0.00,,SCT080,0.00,VWS V14.01,2013-09-22 17:55:00,
2013-09-22 14:00:00,71.0,51.5,29.85,WSW,249,8.0,12.0,50,0.00,,BKN080,0.00,VWS V14.01,2013-09-22 18:00:00,
2013-09-22 14:08:00,70.8,50.8,29.85,West,279,5.0,14.0,49,0.00,,BKN080,0.00,VWS V14.01,2013-09-22 18:08:00,
2013-09-22 14:15:00,72.0,51.3,29.85,NW,308,6.0,12.0,48,0.00,,BKN080,0.00,VWS V14.01,2013-09-22 18:15:00,
2013-09-22 14:20:00,71.6,49.1,29.85,NE,50,4.0,11.0,45,0.00,,BKN080,0.00,VWS V14.01,2013-09-22 18:20:00,
2013-09-22 14:25:00,70.9,50.3,29.85,NW,322,9.0,13.0,48,0.00,,BKN080,0.00,VWS V14.01,2013-09-22 18:25:00,
2013-09-22 14:35:00,70.5,50.5,29.85,WNW,297,4.0,14.0,49,0.00,,BKN080,0.00,VWS V14.01,2013-09-22 18:35:00,
2013-09-22 14:40:00,70.7,51.3,29.85,NNE,26,3.0,16.0,50,0.00,,BKN080,0.00,VWS V14.01,2013-09-22 18:40:00,
2013-09-22 14:45:00,71.6,51.5,29.85,NNW,342,7.0,11.0,49,0.00,,BKN080,0.00,VWS V14.01,2013-09-22 18:45:00,
2013-09-22 14:50:00,71.5,50.8,29.85,SW,236,3.0,13.0,48,0.00,,BKN080,0.00,VWS V14.01,2013-09-22 18:50:00,
2013-09-22 14:55:00,71.3,52.4,29.85,WSW,258,5.0,12.0,51,0.00,,BKN080,0.00,VWS V14.01,2013-09-22 18:55:00,
2013-09-22 15:00:00,71.0,51.0,29.85,WNW,294,8.0,15.0,49,0.00,,BKN080,0.00,VWS V14.01,2013-09-22 19:00:00,
2013-09-22 15:08:00,71.3,50.7,29.84,West,264,6.0,9.0,48,0.00,,BKN080,0.00,VWS V14.01,2013-09-22 19:08:00,
2013-09-22 15:15:00,71.5,51.4,29.84,NNE,31,0.0,12.0,49,0.00,,BKN080,0.00,VWS V14.01,2013-09-22 19:15:00,
2013-09-22 15:20:00,71.3,48.8,29.84,NNW,347,1.0,11.0,45,0.00,,BKN080,0.00,VWS V14.01,2013-09-22 19:20:00,
2013-09-22 15:25:00,71.6,50.9,29.84,NW,324,10.0,12.0,48,0.00,,BKN080,0.00,VWS V14.01,2013-09-22 19:25:00,
2013-09-22 15:30:00,71.5,50.2,29.84,NNW,341,8.0,10.0,47,0.00,,BKN080,0.00,VWS V14.01,2013-09-22 19:30:00,
2013-09-22 15:35:00,70.6,50.6,29.84,ENE,68,4.0,9.0,49,0.00,,BKN080,0.00,VWS V14.01,2013-09-22 19:35:00,
2013-09-22 15:45:00,70.1,50.7,29.84,NNW,334,5.0,8.0,50,0.00,,BKN080,0.00,VWS V14.01,2013-09-22 19:45:00,
2013-09-22 15:50:00,70.1,50.7,29.84,NW,306,3.0,10.0,50,0.00,,BKN080,0.00,VWS V14.01,2013-09-22 19:50:00,
2013-09-22 15:55:00,71.1,51.1,29.84,NW,308,3.0,6.0,49,0.00,,BKN080,0.00,VWS V14.01,2013-09-22 19:55:00,
2013-09-22 16:00:00,71.0,51.0,29.84,NW,311,3.0,7.0,49,0.00,,BKN055,0.00,VWS V14.01,2013-09-22 20:00:00,
2013-09-22 16:08:00,70.8,51.4,29.84,WNW,283,7.0,8.0,50,0.00,,BKN055,0.00,VWS V14.01,2013-09-22 20:08:00,
2013-09-22 16:15:00,70.2,50.8,29.84,WNW,297,5.0,11.0,50,0.00,,BKN055,0.00,VWS V14.01,2013-09-22 20:15:00,
2013-09-22 16:20:00,69.9,52.2,29.84,NW,310,1.0,8.0,53,0.00,,BKN055,0.00,VWS V14.01,2013-09-22 20:20:00,
2013-09-22 16:25:00,70.0,51.7,29.84,WNW,288,1.0,14.0,52,0.00,,BKN055,0.00,VWS V14.01,2013-09-22 20:25:00,
2013-09-22 16:30:00,70.1,51.3,29.84,NW,308,5.0,11.0,51,0.00,,BKN055,0.00,VWS V14.01,2013-09-22 20:30:00,
2013-09-22 16:40:00,69.8,51.0,29.84,NW,324,6.0,7.0,51,0.00,,BKN055,0.00,VWS V14.01,2013-09-22 20:40:00,
2013-09-22 16:45:00,70.5,51.7,29.84,West,266,8.0,11.0,51,0.00,,BKN055,0.00,VWS V14.01,2013-09-22 20:45:00,
2013-09-22 16:55:00,70.9,50.9,29.84,SW,222,5.0,9.0,49,0.00,,BKN055,0.00,VWS V14.01,2013-09-22 20:55:00,
2013-09-22 17:00:00,70.9,49.1,29.84,WNW,291,6.0,13.0,46,0.00,,BKN055,0.00,VWS V14.01,2013-09-22 21:00:00,
2013-09-22 17:08:00,70.6,49.4,29.84,WNW,283,0.0,12.0,47,0.00,,BKN055,0.00,VWS V14.01,2013-09-22 21:08:00,
2013-09-22 17:15:00,70.6,50.6,29.85,WNW,297,2.0,8.0,49,0.00,,BKN055,0.00,VWS V14.01,2013-09-22 21:15:00,
2013-09-22 17:27:00,70.2,50.8,29.85,WNW,294,4.0,8.0,50,0.00,,BKN055,0.00,VWS V14.01,2013-09-22 21:27:00,
2013-09-22 17:35:00,70.3,50.9,29.85,WNW,293,1.0,6.0,50,0.00,,BKN055,0.00,VWS V14.01,2013-09-22 21:35:00,
2013-09-22 17:40:00,70.0,51.2,29.85,WNW,299,6.0,8.0,51,0.00,,BKN055,0.00,VWS V14.01,2013-09-22 21:40:00,
2013-09-22 17:45:00,69.8,50.4,29.85,NNW,337,3.0,8.0,50,0.00,,BKN055,0.00,VWS V14.01,2013-09-22 21:45:00,
2013-09-22 17:50:00,70.2,49.7,29.85,NW,304,1.0,7.0,48,0.00,,BKN055,0.00,VWS V14.01,2013-09-22 21:50:00,
2013-09-22 17:55:00,70.1,50.1,29.85,WNW,286,3.0,6.0,49,0.00,,BKN055,0.00,VWS V14.01,2013-09-22 21:55:00,
2013-09-22 18:00:00,70.1,49.5,29.86,West,277,5.0,9.0,48,0.00,,BKN060,0.00,VWS V14.01,2013-09-22 22:00:00,
2013-09-22 18:08:00,70.1,50.1,29.86,NW,314,0.0,8.0,49,0.00,,BKN060,0.00,VWS V14.01,2013-09-22 22:08:00,
2013-09-22 18:15:00,70.1,49.5,29.86,WNW,289,4.0,12.0,48,0.00,,BKN060,0.00,VWS V14.01,2013-09-22 22:15:00,
2013-09-22 18:20:00,70.0,50.0,29.86,WNW,302,3.0,7.0,49,0.00,,BKN060,0.00,VWS V14.01,2013-09-22 22:20:00,
2013-09-22 18:25:00,69.7,49.8,29.86,NW,318,3.0,7.0,49,0.00,,BKN060,0.00,VWS V14.01,2013-09-22 22:25:00,
2013-09-22 18:30:00,69.5,50.2,29.86,NW,322,2.0,7.0,50,0.00,,BKN060,0.00,VWS V14.01,2013-09-22 22:30:00,
2013-09-22 18:35:00,69.4,50.1,29.86,WNW,283,2.0,6.0,50,0.00,,BKN060,0.00,VWS V14.01,2013-09-22 22:35:00,
2013-09-22 18:45:00,69.2,49.9,29.87,WNW,302,2.0,9.0,50,0.00,,BKN060,0.00,VWS V14.01,2013-09-22 22:45:00,
2013-09-22 18:50:00,69.1,50.4,29.87,WNW,303,4.0,9.0,51,0.00,,BKN060,0.00,VWS V14.01,2013-09-22 22:50:00,
2013-09-22 18:55:00,69.2,50.5,29.87,West,272,4.0,7.0,51,0.00,,BKN060,0.00,VWS V14.01,2013-09-22 22:55:00,
2013-09-22 19:00:00,69.0,50.8,29.87,NW,313,5.0,7.0,52,0.00,,BKN070,0.00,VWS V14.01,2013-09-22 23:00:00,
2013-09-22 19:08:00,68.9,50.7,29.87,NW,306,1.0,7.0,52,0.00,,BKN070,0.00,VWS V14.01,2013-09-22 23:08:00,
2013-09-22 19:15:00,68.5,50.9,29.88,NW,322,5.0,11.0,53,0.00,,BKN070,0.00,VWS V14.01,2013-09-22 23:15:00,
2013-09-22 19:20:00,68.4,50.8,29.88,NNE,16,2.0,7.0,53,0.00,,BKN070,0.00,VWS V14.01,2013-09-22 23:20:00,
2013-09-22 19:25:00,68.3,50.2,29.88,North,352,4.0,8.0,52,0.00,,BKN070,0.00,VWS V14.01,2013-09-22 23:25:00,
2013-09-22 19:30:00,68.2,49.5,29.88,NNE,12,2.0,7.0,51,0.00,,BKN070,0.00,VWS V14.01,2013-09-22 23:30:00,
2013-09-22 19:40:00,67.9,49.8,29.88,NNE,17,4.0,5.0,52,0.00,,BKN070,0.00,VWS V14.01,2013-09-22 23:40:00,
2013-09-22 19:45:00,68.0,49.3,29.89,NW,304,3.0,7.0,51,0.00,,BKN070,0.00,VWS V14.01,2013-09-22 23:45:00,
2013-09-22 19:50:00,68.1,48.9,29.89,North,350,6.0,9.0,50,0.00,,BKN070,0.00,VWS V14.01,2013-09-22 23:50:00,
2013-09-22 19:55:00,68.1,48.9,29.89,WNW,299,1.0,8.0,50,0.00,,BKN070,0.00,VWS V14.01,2013-09-22 23:55:00,
2013-09-22 20:08:00,67.8,50.2,29.90,NNW,345,4.0,7.0,53,0.00,,BKN070,0.00,VWS V14.01,2013-09-23 00:08:00,
2013-09-22 20:15:00,67.6,49.5,29.90,NNW,338,2.0,7.0,52,0.00,,BKN070,0.00,VWS V14.01,2013-09-23 00:15:00,
2013-09-22 20:20:00,67.5,50.0,29.91,NW,320,1.0,7.0,53,0.00,,BKN070,0.00,VWS V14.01,2013-09-23 00:20:00,
2013-09-22 20:25:00,67.5,50.0,29.91,West,265,2.0,5.0,53,0.00,,BKN070,0.00,VWS V14.01,2013-09-23 00:25:00,
2013-09-22 20:30:00,67.4,49.3,29.91,NNW,339,5.0,9.0,52,0.00,,BKN070,0.00,VWS V14.01,2013-09-23 00:30:00,
2013-09-22 20:35:00,67.1,49.1,29.91,NW,312,4.0,11.0,52,0.00,,BKN070,0.00,VWS V14.01,2013-09-23 00:35:00,
2013-09-22 20:45:00,66.6,49.1,29.92,NE,35,7.0,9.0,53,0.00,,BKN070,0.00,VWS V14.01,2013-09-23 00:45:00,
2013-09-22 20:50:00,66.6,48.6,29.92,North,356,4.0,9.0,52,0.00,,BKN070,0.00,VWS V14.01,2013-09-23 00:50:00,
2013-09-22 20:55:00,66.5,48.5,29.92,NE,42,1.0,9.0,52,0.00,,BKN070,0.00,VWS V14.01,2013-09-23 00:55:00,
2013-09-22 21:00:00,66.4,49.0,29.92,North,6,3.0,9.0,53,0.00,,BKN070,0.00,VWS V14.01,2013-09-23 01:00:00,
2013-09-22 21:08:00,66.3,48.9,29.92,NW,316,1.0,8.0,53,0.00,,BKN070,0.00,VWS V14.01,2013-09-23 01:08:00,
2013-09-22 21:15:00,65.9,49.5,29.93,NW,324,4.0,8.0,55,0.00,,BKN070,0.00,VWS V14.01,2013-09-23 01:15:00,
2013-09-22 21:20:00,65.8,48.9,29.93,NNW,345,2.0,6.0,54,0.00,,BKN070,0.00,VWS V14.01,2013-09-23 01:20:00,
2013-09-22 21:25:00,65.6,49.2,29.93,NW,313,0.0,5.0,55,0.00,,BKN070,0.00,VWS V14.01,2013-09-23 01:25:00,
2013-09-22 21:30:00,65.4,49.1,29.93,North,10,1.0,5.0,55,0.00,,BKN070,0.00,VWS V14.01,2013-09-23 01:30:00,
2013-09-22 21:35:00,65.4,48.5,29.94,North,354,5.0,12.0,54,0.00,,BKN070,0.00,VWS V14.01,2013-09-23 01:35:00,
2013-09-22 21:40:00,65.2,48.4,29.94,North,358,2.0,12.0,54,0.00,,BKN070,0.00,VWS V14.01,2013-09-23 01:40:00,
2013-09-22 21:45:00,65.1,48.8,29.94,North,352,2.0,8.0,55,0.00,,BKN070,0.00,VWS V14.01,2013-09-23 01:45:00,
2013-09-22 21:55:00,64.7,48.9,29.94,NNW,336,3.0,7.0,57,0.00,,BKN070,0.00,VWS V14.01,2013-09-23 01:55:00,
2013-09-22 22:00:00,64.5,49.2,29.94,NW,326,2.0,4.0,58,0.00,,BKN070,0.00,VWS V14.01,2013-09-23 02:00:00,
2013-09-22 22:08:00,64.3,49.0,29.94,NW,312,3.0,6.0,58,0.00,,BKN070,0.00,VWS V14.01,2013-09-23 02:08:00,
2013-09-22 22:15:00,64.0,48.3,29.95,NW,306,3.0,7.0,57,0.00,,BKN070,0.00,VWS V14.01,2013-09-23 02:15:00,
2013-09-22 22:20:00,63.9,48.2,29.95,WNW,303,6.0,6.0,57,0.00,,BKN070,0.00,VWS V14.01,2013-09-23 02:20:00,
2013-09-22 22:27:00,63.6,48.4,29.95,WNW,302,4.0,6.0,58,0.00,,BKN070,0.00,VWS V14.01,2013-09-23 02:27:00,
2013-09-22 22:35:00,63.3,48.6,29.96,WNW,293,2.0,6.0,59,0.00,,BKN070,0.00,VWS V14.01,2013-09-23 02:35:00,
2013-09-22 22:40:00,63.0,48.8,29.96,WNW,296,6.0,6.0,60,0.00,,BKN070,0.00,VWS V14.01,2013-09-23 02:40:00,
2013-09-22 22:45:00,62.8,48.6,29.96,NW,309,1.0,6.0,60,0.00,,BKN070,0.00,VWS V14.01,2013-09-23 02:45:00,
2013-09-22 22:50:00,62.6,48.9,29.96,West,279,2.0,6.0,61,0.00,,BKN070,0.00,VWS V14.01,2013-09-23 02:50:00,
2013-09-22 22:55:00,62.4,49.2,29.96,WNW,292,7.0,7.0,62,0.00,,BKN070,0.00,VWS V14.01,2013-09-23 02:55:00,
2013-09-22 23:00:00,62.2,49.0,29.96,WNW,293,6.0,7.0,62,0.00,,SCT070,0.00,VWS V14.01,2013-09-23 03:00:00,
2013-09-22 23:08:00,62.1,48.4,29.97,WNW,301,2.0,6.0,61,0.00,,SCT070,0.00,VWS V14.01,2013-09-23 03:08:00,
2013-09-22 23:15:00,61.6,48.4,29.97,WNW,297,3.0,7.0,62,0.00,,SCT070,0.00,VWS V14.01,2013-09-23 03:15:00,
2013-09-22 23:20:00,61.5,48.8,29.96,WNW,291,3.0,6.0,63,0.00,,SCT070,0.00,VWS V14.01,2013-09-23 03:20:00,
2013-09-22 23:25:00,61.4,48.7,29.97,WNW,296,3.0,7.0,63,0.00,,SCT070,0.00,VWS V14.01,2013-09-23 03:25:00,
2013-09-22 23:30:00,61.3,49.0,29.97,WNW,291,1.0,7.0,64,0.00,,SCT070,0.00,VWS V14.01,2013-09-23 03:30:00,
2013-09-22 23:35:00,61.2,48.5,29.97,NW,318,2.0,5.0,63,0.00,,SCT070,0.00,VWS V14.01,2013-09-23 03:35:00,
2013-09-22 23:40:00,60.9,48.6,29.97,WNW,291,2.0,5.0,64,0.00,,SCT070,0.00,VWS V14.01,2013-09-23 03:40:00,
2013-09-22 23:45:00,60.8,48.5,29.97,WNW,282,5.0,6.0,64,0.00,,SCT070,0.00,VWS V14.01,2013-09-23 03:45:00,
2013-09-22 23:55:00,60.5,48.7,29.97,WNW,301,0.0,6.0,65,0.00,,SCT070,0.00,VWS V14.01,2013-09-23 03:55:00,